Find Starlink 37521

NORAD ID: 69822 Int'l Des: 2026-154 Owner: SPXS Country: US Constellation: starlink operational
LEOCIRCULAR

現在のビュー

3D地球を読み込み中...

About Starlink 37521

Starlink 37521 (NORAD 69822) is a starlink constellation satellite (v2 mini) launched Jul 5, 2026 by SPXS of US. It operates in LEO, CIRCULAR orbit with a mass of 575.00 kg.

次回通過

Passes for default location (London). Set your location on the main map for personalized predictions.

高度履歴

Loading altitude history...

軌道要素

1 69822U 26154D 26234.94523302 .00032163 00000-0 92853-3 0 9995
2 69822 53.1599 105.2556 0001415 87.1320 272.9845 15.35415616 8852
Epoch: Aug 22, 2026 • Age: 26 hours

現在のステータス

高度 460.5 km
遠地点 / 近地点 N/A
速度 7.64 km/s
衛星直下点 29.63°N, 81.55°W
打ち上げ日 Jul 5, 2026
運用期間 0.1 years
タイプ internet

技術仕様

分類 Payload
質量 575.00 kg
乾燥質量 530.00 kg
総質量 575.00 kg
長さ 0.30 m
直径 4.10 m
スパン 29.00 m
形状 Box + pan
製造者 SPXS
バスタイプ Starlink V2MO
フェーズステータス In Orbit
所有者/国 SPXS/US

Most Searched